Location: Newark
(42.3706°N, 7.7003°W)
Time: 01:33:47
(UTC+00:00)

ISS - Visible Passes

Search period start: 01 October 2020 00:00
Search period end: 11 October 2020 00:00
Orbit: 419 x 421 km, 51.6° (Epoch: 01 October)

Date Brightness Start Highest point End Pass type
(mag) Time Alt. Az. Time Alt. Az. Time Alt. Az.
01 Oct -2.0 19:03:55 10° NW 19:06:38 22° NNE 19:08:40 14° ENE visible
01 Oct -1.1 20:40:27 10° NW 20:41:39 20° NW 20:41:39 20° NW visible
02 Oct -3.3 19:53:11 10° NW 19:56:14 53° N 19:56:14 53° N visible
03 Oct -2.9 19:05:56 10° NW 19:09:07 37° NNE 19:10:53 21° E visible
03 Oct -0.8 20:42:51 10° WNW 20:43:52 17° W 20:43:52 17° W visible
04 Oct -3.3 19:55:22 10° WNW 19:58:35 54° SW 19:58:35 54° SW visible
05 Oct -3.8 19:08:00 10° NW 19:11:22 89° NE 19:13:25 22° SE visible
06 Oct -1.5 19:58:05 10° W 20:00:34 19° SW 20:01:20 18° SSW visible
07 Oct -2.1 19:10:19 10° WNW 19:13:22 31° SW 19:16:23 10° SSE visible
08 Oct -3.0 18:22:47 10° WNW 18:26:05 54° SW 18:29:22 10° SE visible
09 Oct -0.6 19:13:58 10° WSW 19:15:04 11° SW 19:16:11 10° SSW visible
10 Oct -0.9 18:25:26 10° W 18:27:54 19° SW 18:30:20 10° S visible
